Probability
0 0 0 0 0 0 0 0 0 0 0 0 0 0 0 0 0 0 0 0 0 0 0 0 0 0 0 0 1 0 0 0 0 0 0 0 0 0 0 0 0 0 0 0
0 0 0 0 0 0 0 0 0 0 0 0 0 0 0 0 0 0 0 0 0 0 0 0 0 0 0 0 1 0 0 0 0 0 0 0 0 0 0 0 0 0 0 0
0 0 0 0 0 0 0 0 0 0 0 0 0 0 0 0 0 0 0 0 0 0 0 0 0 0 0 0 0 0 0 0 0 0 0 0 0 0 0 0 0 0 0 0
0 0 0 0 0 0 0 0 0 0 0 0 0 0 0 0 0 0 0 0 0 0 0 0 0 0 0 0 0 0 0 0 0 0 0 0 0 0 0 0 0 0 0 0
0 0 0 0 0 0 0 0 0 0 0 0 0 0 0 0 0 0 0 0 0 0 0 0 0 0 0 0 0 0 0 0 0 0 0 0 0 0 0 0 0 0 0 0
0 0 0 0 0 0 0 0 0 0 0 0 0 0 0 0 0 0 0 0 0 0 0 0 0 0 0 0 0 0 0 0 0 0 0 0 0 0 0 0 0 0 0 0
0 0 0 0 0 0 0 0 0 0 0 0 0 0 0 0 0 0 0 0 0 0 0 0 0 0 0 0 0 0 0 0 0 0 0 0 0 0 0 0 0 0 0 0
0 0 0 0 0 0 0 0 0 0 0 0 0 0 0 0 0 0 0 0 0 0 0 0 0 0 0 0 0 0 0 0 0 0 0 0 0 0 0 0 0 0 0 0
0 0 0 0 0 0 0 0 0 0 0 0 0 0 0 0 0 0 0 0 0 0 0 0 0 0 0 0 0 0 0 0 0 0 0 0 0 0 0 0 0 0 0 0
0 0 0 0 0 0 0 0 0 0 0 0 0 0 0 0 0 0 0 0 0 0 0 0 0 0 0 0 0 0 0 0 0 0 0 0 0 0 0 0 0 0 0 0
0 0 0 0 0 0 0 0 0 0 0 0 0 0 0 0 0 0 0 0 0 0 0 0 0 0 0 0 0 0 0 0 0 0 0 0 0 0 0 0 0 0 0 0
0 0 0 0 0 0 0 0 0 0 0 0 0 0 0 0 0 0 0 0 0 0 0 0 0 0 0 0 0 0 0 0 0 0 0 0 0 0 0 0 0 0 0 0
0 0 0 0 0 0 0 0 0 0 0 0 0 0 0 0 0 0 0 0 0 0 0 0 0 0 0 0 0 0 0 0 0 0 0 0 0 0 0 0 0 0 0 0
0 0 0 0 0 0 0 0 0 0 0 0 0 0 0 0 0 0 0 0 0 0 0 0 0 0 0 0 0 0 0 0 0 0 0 0 0 0 0 0 0 0 0 0
0 0 0 0 0 0 0 0 0 0 0 0 0 0 0 0 0 0 0 0 0 0 0 0 0 0 0 0 0 0 0 0 0 0 0 0 0 0 0 0 0 0 0 0
0 0 0 0 0 0 0 0 0 0 0 0 0 0 0 0 0 0 0 0 0 0 0 0 0 0 0 0 0 0 0 0 0 0 0 0 0 0 0 0 0 0 0 0
0 0 0 0 0 0 0 0 0 0 0 0 0 0 0 0 0 0 0 0 0 0 0 0 0 0 0 0 0 0 0 0 0 0 0 0 0 0 0 0 0 0 0 0
0 0 0 0 0 0 0 0 0 0 0 0 0 0 0 0 0 0 0 0 0 0 0 0 0 0 0 0 0 0 0 0 0 0 0 0 0 0 0 0 0 0 0 0
0 0 0 0 0 0 0 0 0 0 0 0 0 0 0 0 0 0 0 0 0 0 0 0 0 0 0 0 0 0 0 0 0 0 0 0 0 0 0 0 0 0 0 0
0 0 0 0 0 0 0 0 0 0 0 0 0 0 0 0 0 0 0 0 0 0 0 0 0 0 0 0 0 0 0 0 0 0 0 0 0 0 0 0 0 0 0 0
0 0 0 0 0 0 0 0 0 0 0 0 0 0 0 0 0 0 0 0 0 0 0 0 0 0 0 0 0 0 0 0 0 0 0 0 0 0 0 0 0 0 0 0
0 0 0 0 0 0 0 0 0 0 0 0 0 0 0 0 0 0 0 0 0 0 0 0 0 0 0 0 0 0 0 0 0 0 0 0 0 0 0 0 0 0 0 0
0 0 0 0 0 0 0 0 0 0 0 0 0 0 0 0 0 0 0 0 0 0 0 0 0 0 0 0 0 0 0 0 0 0 0 0 0 0 0 0 0 0 0 0
0 0 0 0 0 0 0 0 0 0 0 0 0 0 0 0 0 0 0 0 0 0 0 0 0 0 0 0 0 0 0 0 0 0 0 0 0 0 0 0 0 0 0 0
0 0 0 0 0 0 0 0 0 0 0 0 0 0 0 0 0 0 0 0 0 0 0 0 0 0 0 0 0 0 0 0 0 0 0 0 0 0 0 0 0 0 0 0
0 0 0 0 0 0 0 0 0 0 0 0 0 0 0 0 0 0 0 0 0 0 0 0 0 0 0 0 0 0 0 0 0 0 0 0 0 0 0 0 0 0 0 0
0 0 0 0 0 0 0 0 0 0 0 0 0 0 0 0 0 0 0 0 0 0 0 0 0 0 0 0 0 0 0 0 0 0 0 0 0 0 0 0 0 0 0 0
Wind_Speed
11 10 7 10 12 9 11 12 12 16 17 20 14 10 8 7 6 6 6 5 5 5 4 4 4 5 4 4 4 3 3 3 4 4 4 4 4 2 2 3 4 4 4 5
8 8 10 14 15 14 15 14 16 18 21 17 11 8 7 7 6 6 6 6 6 5 5 5 5 5 5 4 4 3 3 4 4 4 4 4 3 2 1 2 2 3 4 4
8 5 5 11 11 12 9 9 9 14 16 10 8 8 7 6 6 6 7 6 6 5 4 5 5 5 4 4 4 3 4 5 5 4 4 4 4 2 1 2 2 2 3 3
4 2 10 9 4 6 9 11 10 11 10 8 8 7 6 6 6 6 5 5 5 4 5 5 4 4 4 4 4 4 4 5 5 5 4 4 3 2 2 1 1 2 2 3
3 6 11 9 5 5 6 9 7 9 10 9 7 6 6 6 4 4 5 5 5 4 5 5 5 5 4 4 4 4 5 5 5 5 5 4 4 3 2 2 2 2 2 3
5 6 9 8 4 2 1 7 5 5 6 6 3 4 7 5 3 4 4 4 4 4 4 4 5 4 3 4 4 5 5 6 5 5 5 4 4 4 3 2 2 2 2 2
9 9 10 8 2 4 3 8 4 2 4 4 4 7 7 5 4 4 4 4 4 3 3 4 4 3 3 3 4 5 5 5 5 5 5 4 3 3 3 2 2 2 2 2
6 8 11 3 5 7 8 4 3 4 4 5 7 8 7 6 5 5 5 5 4 4 4 4 3 2 3 4 5 5 4 5 5 5 4 3 3 4 3 2 1 1 1 1
10 10 6 4 7 6 4 5 6 6 6 6 7 7 7 6 6 5 5 5 4 4 5 5 3 2 4 5 4 4 4 5 5 5 4 3 3 3 3 1 0 1 1 1
8 11 9 8 7 7 7 8 8 7 7 6 7 8 8 7 6 6 6 5 4 3 4 5 4 3 4 5 3 3 4 4 4 4 4 3 2 2 2 1 1 1 1 1
10 10 7 8 10 10 9 7 7 7 7 7 8 8 7 7 7 6 6 5 4 4 5 6 5 4 4 4 3 3 4 4 4 4 3 3 3 2 2 1 2 2 2 2
11 9 7 8 7 6 7 8 8 7 8 7 6 8 7 7 6 6 6 5 4 5 5 5 5 5 4 3 2 2 3 3 3 3 3 2 2 3 2 1 3 4 3 3
12 9 8 8 7 7 7 8 7 7 7 7 6 6 6 6 6 5 5 5 5 5 5 5 5 5 4 3 2 2 3 3 2 2 2 2 1 1 2 3 4 3 3 2
8 6 7 7 7 6 6 6 6 5 5 6 6 5 5 5 5 5 6 6 5 4 4 4 4 5 4 3 2 2 2 3 3 2 2 1 1 1 1 1 2 3 3 3
6 6 7 6 5 5 4 4 4 6 6 6 5 5 5 5 6 7 6 4 4 4 4 4 4 5 3 2 2 2 2 2 2 2 2 1 0 1 1 1 1 2 2 3
4 4 4 4 6 6 4 4 5 7 6 6 5 5 5 5 6 6 4 3 3 4 4 4 4 4 3 2 2 2 2 3 3 2 1 0 0 1 1 1 1 1 2 2
3 4 4 5 5 6 5 5 6 6 6 6 6 6 5 4 4 4 4 3 3 4 4 3 4 3 3 2 2 1 1 2 3 2 1 1 0 1 1 0 1 1 2 2
4 4 4 5 4 5 5 5 5 5 5 6 5 4 4 4 4 5 4 3 3 4 3 3 3 3 2 2 2 1 1 1 1 1 1 1 1 1 1 0 1 1 2 2
2 3 3 3 3 3 4 4 5 5 5 4 4 4 4 4 4 4 3 3 3 4 4 3 4 3 2 2 2 1 1 1 1 1 1 2 1 1 0 1 1 1 2 2
2 2 2 3 3 2 3 4 4 4 4 4 3 3 4 4 3 3 3 4 4 4 4 4 3 2 1 2 2 1 1 1 1 1 1 1 1 1 1 1 1 1 2 1
2 2 3 3 3 4 4 4 4 5 5 4 3 4 4 4 3 3 3 4 4 3 3 4 2 1 1 2 2 1 1 1 1 1 1 1 1 1 1 1 1 1 2 1
2 2 3 3 3 4 4 4 4 4 4 4 4 3 4 4 4 4 4 4 4 5 3 2 1 3 3 3 1 1 1 1 1 1 1 2 2 1 1 1 2 2 1 1
2 2 3 3 4 4 5 4 4 4 4 4 4 4 4 4 3 3 4 3 3 4 3 2 3 5 5 2 1 1 1 2 2 2 2 2 2 2 2 2 2 1 1 1
2 3 3 3 3 3 4 5 4 4 4 5 5 4 4 4 4 3 4 6 6 5 3 3 5 5 4 1 1 1 1 2 2 2 2 2 2 1 1 1 1 1 1 1
3 3 3 3 3 3 4 4 4 4 4 4 5 5 4 3 4 4 4 4 5 4 3 3 5 4 2 1 1 1 2 2 2 2 2 2 2 2 2 2 1 1 1 1
3 3 3 4 4 3 3 3 3 4 4 4 4 4 3 3 3 3 3 3 3 3 2 2 2 2 1 1 2 2 2 2 2 2 2 2 2 2 2 2 2 2 1 1
3 3 3 3 3 3 3 3 3 4 4 4 5 5 4 4 3 3 3 2 2 2 2 1 1 1 1 2 2 2 2 2 2 2 2 2 2 2 2 2 2 2 2 2
Wind_Direction
252 261 254 255 260 243 227 232 244 262 268 278 286 290 292 295 300 306 305 306 306 301 300 309 319 320 314 312 317 319 319 319 314 312 309 306 307 276 249 224 216 214 219 217
268 260 257 266 264 253 248 246 248 263 272 274 279 281 283 286 289 294 298 299 299 301 310 316 316 315 314 316 318 317 318 315 316 322 321 313 311 296 280 245 227 222 213 214
271 286 296 267 249 238 234 229 230 249 261 282 295 291 281 280 279 279 283 288 294 297 298 299 301 302 303 307 317 322 322 322 325 327 322 317 314 308 298 259 231 226 221 214
265 324 249 251 219 223 237 251 243 252 268 278 277 287 290 276 270 274 277 286 291 294 296 296 297 302 306 315 324 324 326 326 326 329 323 319 315 302 297 279 222 224 234 231
222 245 270 283 252 203 219 264 249 249 265 277 290 313 302 280 262 255 268 275 280 282 287 299 304 305 312 318 325 326 324 322 321 324 322 317 313 303 290 290 266 237 240 222
216 231 249 256 252 194 141 281 269 237 263 286 318 310 291 297 288 286 288 288 289 294 299 303 302 306 312 314 322 319 315 313 315 318 312 308 306 303 302 287 263 247 234 217
229 242 259 257 217 125 193 253 281 248 260 269 242 246 273 293 291 287 288 288 289 290 291 288 295 301 300 307 302 299 307 313 315 317 311 305 312 313 311 293 275 235 219 222
207 230 252 228 147 188 227 256 279 278 271 268 266 275 284 286 284 285 288 288 284 283 286 288 290 289 293 293 293 306 315 315 315 316 314 318 327 327 322 301 254 201 206 227
206 226 243 199 208 230 241 260 270 270 277 276 277 281 286 283 278 277 275 279 280 276 288 295 288 269 273 284 298 312 317 314 313 317 316 321 327 327 325 304 196 227 208 216
247 255 256 254 255 257 250 253 264 268 275 274 272 276 279 279 278 279 279 277 278 277 285 292 294 285 273 283 297 303 306 311 317 321 325 328 326 316 309 297 278 251 232 219
248 262 278 266 252 254 257 259 266 271 266 263 266 273 273 274 275 274 276 277 272 264 267 276 287 288 284 285 295 303 306 312 317 322 326 328 326 310 298 278 270 258 241 225
243 238 230 250 253 249 249 257 260 267 274 269 257 264 271 271 271 272 273 273 271 268 269 276 285 286 288 287 282 289 303 307 307 317 317 317 321 336 323 298 316 310 290 267
245 254 249 258 265 259 256 263 265 262 261 270 272 264 266 271 276 275 276 274 267 266 270 276 281 283 287 288 282 276 282 292 300 308 309 313 334 358 348 4 11 1 359 333
247 254 264 261 262 268 265 269 273 270 267 266 268 270 269 273 278 275 270 269 272 276 278 277 279 281 288 291 283 282 285 287 296 298 303 309 331 333 324 339 348 356 3 356
251 235 243 261 271 278 278 279 285 286 285 282 277 275 273 272 273 274 275 280 284 281 280 280 281 286 298 295 278 277 284 290 294 296 295 292 336 349 345 347 339 334 343 356
269 262 255 263 271 279 284 280 277 281 284 283 283 280 274 271 276 283 282 275 270 273 274 276 278 286 297 294 283 279 277 287 300 301 303 325 21 2 346 1 343 335 329 327
253 270 274 278 278 280 276 269 267 275 280 280 279 284 288 288 290 292 291 288 278 275 274 271 278 291 293 286 278 274 279 290 298 307 307 312 353 333 313 309 310 315 310 296
226 239 249 255 264 277 285 286 282 283 282 284 291 292 287 279 278 284 294 305 310 304 291 275 275 284 280 276 271 262 263 273 276 270 281 296 312 296 292 275 283 301 314 313
272 268 279 286 281 275 284 292 294 294 295 296 293 288 285 283 284 289 298 300 294 295 296 291 292 297 281 271 275 251 256 269 275 275 281 289 307 314 291 267 276 289 296 302
343 341 335 333 336 320 306 305 306 306 304 300 297 298 301 299 298 296 298 289 276 269 278 287 293 289 272 262 267 251 245 251 239 259 265 268 269 282 284 275 278 287 295 287
342 341 340 336 329 324 317 310 308 307 311 312 298 290 292 297 298 292 292 295 296 287 281 281 284 272 260 257 256 233 238 235 249 261 259 268 269 277 282 281 285 283 281 270
332 330 327 324 322 319 319 316 309 308 313 312 305 298 298 301 302 299 281 268 282 294 300 280 269 264 268 270 234 219 226 223 242 247 244 254 252 258 269 268 273 273 261 232
316 313 312 312 309 306 312 317 315 311 307 306 304 300 293 289 288 285 291 287 283 290 297 276 271 274 278 272 229 219 225 236 241 242 241 247 247 242 249 255 257 258 246 203
307 306 304 306 311 313 313 314 314 310 304 302 298 293 291 294 294 277 268 283 291 294 289 280 283 280 279 261 219 219 231 240 242 245 248 249 246 244 246 245 246 239 224 197
299 299 303 309 308 299 297 306 313 311 309 307 304 302 295 279 274 288 290 284 283 294 294 287 289 288 285 249 227 232 234 239 240 236 235 242 242 240 237 231 226 210 196 190
293 288 280 273 270 279 289 297 299 301 306 308 309 309 306 299 289 289 290 293 290 291 291 284 283 285 262 241 242 246 239 251 265 258 243 242 239 233 229 225 218 202 188 183
286 282 286 293 289 282 283 284 287 292 295 296 300 303 303 301 299 298 295 294 293 283 274 269 264 250 245 249 248 252 252 248 246 243 240 234 228 225 220 218 206 189 177 175